esl-lounge.com alexa rank chart, esl-lounge.com alexa rank daily changes

esl-lounge.com alexa rank chart, esl-lounge.com alexa rank daily changes

esl-lounge.com
Actual rank:
34 541

RANK HISTORY

Date Rank Diff
2017/12/11 34 541 -739
2017/12/10 35 280 -255
2017/12/09 35 535 -249
2017/12/08 35 784 +468
2017/12/07 35 316 +1 129
2017/12/06 34 187 -725
2017/12/05 34 912 +4
2017/12/04 34 908 +177
2017/12/03 34 731 -334
2017/12/02 35 065 -179
2017/12/01 35 244 +427
2017/11/30 34 817 -655
2017/11/29 35 472 -293
2017/11/28 35 765 -439
2017/11/27 36 204 +334
2017/11/26 35 870 +335
2017/11/25 35 535 +774
2017/11/24 34 761 +352
2017/11/23 34 409 -49
2017/11/22 34 458 +168
2017/11/21 34 290 +132
2017/11/20 34 158 +617
2017/11/19 33 541 -100
2017/11/18 33 641 -114
2017/11/17 33 755 -439
2017/11/16 34 194 -272
2017/11/15 34 466 -545
2017/11/14 35 011 +87
2017/11/13 34 924 +298
2017/11/12 34 626 +92
2017/11/11 34 534 +113
2017/11/10 34 421 -159
2017/11/09 34 580 -315
2017/11/08 34 895 -582
2017/11/07 35 477 -693
2017/11/06 36 170 +699
2017/11/05 35 471 +61
2017/11/04 35 410 +211
2017/11/03 35 199 +70
2017/11/02 35 129 -22
2017/11/01 35 151 -306
2017/10/31 35 457 -435
2017/10/30 35 892 +507
2017/10/29 35 385 +787
2017/10/28 34 598 -61
2017/10/27 34 659 -196
2017/10/26 34 855 -732
2017/10/25 35 587 -583
2017/10/24 36 170 -817
2017/10/23 36 987 -102
2017/10/22 37 089 +422
2017/10/21 36 667 -499
2017/10/20 37 166 -666
2017/10/19 37 832 -229
2017/10/18 38 061 -143
2017/10/17 38 204 -172
2017/10/16 38 376 +266
2017/10/14 38 110 -347
2017/10/13 38 457 -167
2017/10/12 38 624

WIDGET FOR YOUR SITE

DOMAINS WITH THE NEAREST RANK

Domain Rank
katu.com 34 536
uu-gg.net 34 537
zazzle.co.uk 34 538
designbundles.net 34 539
comune.milano.it 34 540
esl-lounge.com 34 541
cashcapitalsystem.org 34 542
humankinetics.com 34 543
bestgfx.org 34 544
pathfinder.gr 34 545
fashionplus.co.kr 34 546

DOMAINS WITH THE NEAREST RANK BY TLD .com

Domain Rank
empowernetwork.com 34 526
adworldmedia.com 34 528
searchmab.com 34 530
collegesimply.com 34 535
katu.com 34 536
esl-lounge.com 34 541
humankinetics.com 34 543
greencarreports.com 34 548
filmbaroon.com 34 549
myfreepaysite.com 34 551
typingmaster.com 34 552